contact:dominique.lefevre@mio.osupytheas.fr, maurice.libes@osupytheas.fr, didier.mallarino@osupytheas.fr
Project:EMSO http://www.emso-fr.org/EMSO-France
Depth: 2436.0 m
Title:EMSO Ligure Ouest : Data MII capteur AQUADOPP
Date,Latitude,Longitude,X_East,Y_North,Z_Up,Amplitude_X,Amplitude_Y,Amplitude_Z,Batterie,SoundSpeed,Heading,Pitch,Roll,Pressure,TIS,Speed,Direction
, degrees North, degrees East, m.s-1, m.s-1,m.s-1, 1, 1, 1, Volt, m.s-1, degree, degree, degree, dbar, degree_C, m.s-1, degree
2020-07-29T00:04:03,42.805,6.029,0.013,-0.052,-0.006,106.0,105.0,102.0,13.4,1505.2,326.2,-0.7,1.8,2470.463,13.3,0.053,166.0
2020-07-29T00:07:03,42.805,6.029,0.053,-0.061,0.002,105.0,104.0,102.0,13.4,1505.3,324.7,-0.7,1.8,2470.45,13.31,0.08,139.0
2020-07-29T00:10:03,42.805,6.029,0.036,-0.052,0.02,105.0,104.0,102.0,13.4,1505.3,323.8,-0.7,1.8,2470.434,13.31,0.063,145.3
2020-07-29T00:13:03,42.805,6.029,0.033,-0.056,0.007,105.0,105.0,102.0,13.4,1505.3,327.0,-0.7,1.8,2470.412,13.32,0.064,149.5
2020-07-29T00:16:03,42.805,6.029,0.032,-0.062,-0.002,106.0,105.0,103.0,13.4,1505.3,324.5,-0.7,1.8,2470.435,13.32,0.069,152.7
2020-07-29T00:19:03,42.805,6.029,0.013,-0.07,-0.041,105.0,105.0,102.0,13.3,1505.3,323.4,-0.6,1.8,2470.458,13.32,0.071,169.5
2020-07-29T00:22:03,42.805,6.029,0.026,-0.038,0.013,106.0,105.0,103.0,13.3,1505.3,327.2,-0.7,1.8,2470.438,13.32,0.046,145.6
2020-07-29T00:25:03,42.805,6.029,0.011,-0.046,-0.017,104.0,105.0,103.0,13.4,1505.3,324.9,-0.7,1.9,2470.417,13.32,0.047,166.6
2020-07-29T00:28:03,42.805,6.029,0.023,-0.05,-0.026,105.0,104.0,102.0,13.3,1505.3,325.1,-0.7,1.8,2470.436,13.32,0.055,155.3
2020-07-29T00:31:03,42.805,6.029,0.031,-0.058,-0.026,105.0,106.0,102.0,13.4,1505.3,326.9,-0.7,1.9,2470.393,13.32,0.065,151.9
2020-07-29T00:34:03,42.805,6.029,0.011,-0.054,-0.016,107.0,105.0,102.0,13.4,1505.3,323.8,-0.7,1.8,2470.44,13.32,0.055,168.5
2020-07-29T00:37:03,42.805,6.029,-0.005,-0.047,-0.021,106.0,105.0,103.0,13.4,1505.3,325.9,-0.7,1.8,2470.428,13.32,0.047,186.1
2020-07-29T00:40:03,42.805,6.029,0.027,-0.029,0.009,106.0,105.0,102.0,13.4,1505.3,326.4,-0.7,1.8,2470.441,13.32,0.039,137.0
2020-07-29T00:43:03,42.805,6.029,0.028,-0.054,0.014,106.0,105.0,101.0,13.4,1505.3,326.0,-0.7,1.8,2470.408,13.32,0.06,152.6
2020-07-29T00:46:03,42.805,6.029,0.01,-0.059,-0.016,107.0,105.0,103.0,13.4,1505.3,325.3,-0.7,1.9,2470.418,13.32,0.059,170.4
2020-07-29T00:49:03,42.805,6.029,-0.004,-0.048,-0.018,106.0,106.0,102.0,13.4,1505.3,326.9,-0.7,1.8,2470.443,13.32,0.048,184.8
2020-07-29T00:52:03,42.805,6.029,0.028,-0.053,-0.033,106.0,107.0,101.0,13.4,1505.3,323.1,-0.7,1.8,2470.433,13.32,0.059,152.1
2020-07-29T00:55:03,42.805,6.029,0.012,-0.04,-0.008,106.0,106.0,103.0,13.4,1505.3,326.0,-0.7,1.8,2470.452,13.32,0.041,163.3
2020-07-29T00:58:03,42.805,6.029,-0.01,-0.038,-0.014,105.0,104.0,103.0,13.3,1505.3,326.5,-0.8,1.9,2470.393,13.32,0.039,194.7
2020-07-29T01:04:03,42.805,6.029,0.014,-0.067,-0.03,107.0,107.0,105.0,13.4,1505.2,323.1,-0.7,1.8,2470.427,13.3,0.068,168.2
2020-07-29T01:07:02,42.805,6.029,0.041,-0.043,-0.025,106.0,107.0,103.0,13.4,1505.3,324.0,-0.7,1.8,2470.46,13.31,0.059,136.4
2020-07-29T01:10:03,42.805,6.029,0.021,-0.031,-0.028,107.0,106.0,103.0,13.4,1505.3,325.9,-0.7,1.9,2470.437,13.31,0.037,145.9
2020-07-29T01:13:03,42.805,6.029,0.023,-0.062,-0.025,107.0,106.0,103.0,13.4,1505.3,326.4,-0.7,1.8,2470.447,13.32,0.066,159.6
2020-07-29T01:16:03,42.805,6.029,0.006,-0.038,-0.025,107.0,105.0,103.0,13.4,1505.3,325.0,-0.7,1.8,2470.454,13.32,0.038,171.0
2020-07-29T01:19:03,42.805,6.029,0.029,-0.051,-0.017,107.0,106.0,104.0,13.4,1505.3,323.2,-0.7,1.8,2470.448,13.32,0.058,150.4
2020-07-29T01:22:03,42.805,6.029,0.028,-0.045,0.003,106.0,106.0,103.0,13.4,1505.3,325.7,-0.7,1.8,2470.469,13.32,0.053,148.1
2020-07-29T01:25:03,42.805,6.029,0.006,-0.033,-0.019,106.0,106.0,103.0,13.4,1505.3,324.6,-0.7,1.9,2470.441,13.32,0.033,169.7
2020-07-29T01:28:03,42.805,6.029,0.031,-0.025,0.01,106.0,105.0,102.0,13.4,1505.3,327.2,-0.7,1.8,2470.436,13.32,0.039,128.9
2020-07-29T01:31:03,42.805,6.029,0.006,-0.044,-0.037,105.0,107.0,103.0,13.4,1505.3,326.8,-0.7,1.8,2470.489,13.32,0.044,172.2
2020-07-29T01:34:03,42.805,6.029,0.002,-0.044,-0.011,107.0,106.0,102.0,13.4,1505.3,325.5,-0.7,1.8,2470.443,13.32,0.044,177.4
2020-07-29T01:37:03,42.805,6.029,0.014,-0.062,-0.013,107.0,107.0,103.0,13.4,1505.3,323.3,-0.7,1.8,2470.411,13.32,0.063,167.3
2020-07-29T01:40:03,42.805,6.029,0.033,-0.046,-0.035,106.0,106.0,103.0,13.4,1505.3,325.2,-0.7,1.8,2470.45,13.32,0.056,144.3
2020-07-29T01:43:03,42.805,6.029,0.037,-0.032,-0.027,106.0,106.0,102.0,13.3,1505.3,327.3,-0.7,1.8,2470.443,13.32,0.048,130.9
2020-07-29T01:46:02,42.805,6.029,-0.001,-0.04,0.006,107.0,105.0,102.0,13.4,1505.3,323.2,-0.7,1.8,2470.444,13.32,0.04,181.4
2020-07-29T01:49:03,42.805,6.029,0.021,-0.055,-0.013,106.0,106.0,103.0,13.4,1505.3,326.8,-0.7,1.8,2470.377,13.32,0.058,159.1
2020-07-29T01:52:03,42.805,6.029,0.018,-0.053,-0.006,107.0,105.0,103.0,13.3,1505.3,326.3,-0.7,1.8,2470.436,13.32,0.055,161.2
2020-07-29T01:55:03,42.805,6.029,0.008,-0.053,-0.009,106.0,107.0,102.0,13.3,1505.3,323.0,-0.7,1.8,2470.437,13.32,0.053,171.4
2020-07-29T01:58:03,42.805,6.029,0.008,-0.048,-0.014,107.0,105.0,103.0,13.4,1505.3,325.2,-0.7,1.8,2470.444,13.32,0.048,170.5
2020-07-29T02:04:02,42.805,6.029,0.002,-0.044,-0.011,105.0,106.0,104.0,13.4,1505.2,324.5,-0.7,1.8,2470.44,13.3,0.044,177.4
2020-07-29T02:07:03,42.805,6.029,0.017,-0.043,0.009,105.0,106.0,102.0,13.3,1505.3,325.1,-0.7,1.9,2470.439,13.31,0.046,158.4
2020-07-29T02:10:03,42.805,6.029,0.023,-0.035,-0.013,106.0,106.0,102.0,13.4,1505.3,325.6,-0.7,1.8,2470.468,13.31,0.041,146.7
2020-07-29T02:13:03,42.805,6.029,0.012,-0.045,-0.017,106.0,105.0,103.0,13.3,1505.3,326.2,-0.7,1.8,2470.46,13.32,0.046,165.1
2020-07-29T02:16:03,42.805,6.029,0.012,-0.037,-0.013,106.0,107.0,102.0,13.4,1505.3,326.3,-0.7,1.8,2470.484,13.32,0.038,162.0
2020-07-29T02:19:03,42.805,6.029,0.013,-0.039,-0.027,107.0,107.0,102.0,13.4,1505.3,326.7,-0.7,1.8,2470.442,13.32,0.041,161.6
2020-07-29T02:22:03,42.805,6.029,0.021,-0.071,-0.034,106.0,105.0,104.0,13.4,1505.3,326.3,-0.7,1.8,2470.435,13.32,0.074,163.5
2020-07-29T02:25:02,42.805,6.029,-0.001,-0.057,-0.042,106.0,107.0,103.0,13.4,1505.3,325.9,-0.7,1.8,2470.41,13.32,0.057,181.0
2020-07-29T02:28:03,42.805,6.029,0.037,-0.03,0.016,106.0,106.0,102.0,13.3,1505.3,325.1,-0.7,1.8,2470.445,13.32,0.047,129.0
2020-07-29T02:31:03,42.805,6.029,0.022,-0.068,0.002,107.0,106.0,101.0,13.4,1505.3,327.8,-0.7,1.8,2470.474,13.32,0.071,162.1
2020-07-29T02:34:03,42.805,6.029,0.008,-0.074,-0.039,105.0,106.0,101.0,13.3,1505.3,327.1,-0.7,1.8,2470.434,13.32,0.074,173.8
2020-07-29T02:37:03,42.805,6.029,0.011,-0.063,-0.026,106.0,104.0,102.0,13.4,1505.3,327.9,-0.7,1.8,2470.419,13.32,0.063,170.1
2020-07-29T02:40:03,42.805,6.029,-0.001,-0.054,0.001,106.0,105.0,102.0,13.4,1505.3,328.1,-0.7,1.8,2470.404,13.32,0.054,181.1
2020-07-29T02:43:03,42.805,6.029,0.028,-0.057,-0.002,107.0,105.0,103.0,13.4,1505.3,326.8,-0.7,1.8,2470.391,13.32,0.063,153.8
2020-07-29T02:46:03,42.805,6.029,0.018,-0.041,-0.027,105.0,106.0,103.0,13.3,1505.3,327.6,-0.7,1.8,2470.393,13.32,0.044,156.3
2020-07-29T02:49:03,42.805,6.029,0.002,-0.051,-0.044,107.0,105.0,102.0,13.3,1505.3,325.0,-0.7,1.8,2470.404,13.32,0.051,177.8
2020-07-29T02:52:02,42.805,6.029,0.019,-0.037,-0.007,106.0,105.0,102.0,13.4,1505.3,324.8,-0.7,1.8,2470.394,13.32,0.041,152.8
2020-07-29T02:55:03,42.805,6.029,0.015,-0.046,0.001,107.0,105.0,102.0,13.3,1505.3,328.0,-0.7,1.8,2470.447,13.32,0.048,161.9
2020-07-29T02:58:03,42.805,6.029,0.016,-0.044,-0.029,105.0,105.0,102.0,13.4,1505.3,323.7,-0.7,1.8,2470.406,13.32,0.046,160.0
2020-07-29T03:04:03,42.805,6.029,-0.013,-0.043,-0.008,105.0,106.0,103.0,13.3,1505.2,324.7,-0.8,1.8,2470.509,13.3,0.044,196.8
2020-07-29T03:07:03,42.805,6.029,0.02,-0.058,-0.022,107.0,105.0,101.0,13.4,1505.3,327.6,-0.7,1.8,2470.413,13.31,0.061,161.0
2020-07-29T03:10:03,42.805,6.029,0.019,-0.042,-0.014,105.0,106.0,102.0,13.3,1505.3,326.5,-0.7,1.8,2470.458,13.31,0.046,155.7
2020-07-29T03:13:03,42.805,6.029,-0.02,-0.067,-0.031,105.0,106.0,101.0,13.3,1505.3,327.2,-0.7,1.8,2470.45,13.32,0.069,196.6
2020-07-29T03:16:03,42.805,6.029,0.003,-0.033,-0.007,104.0,106.0,103.0,13.3,1505.3,326.9,-0.7,1.8,2470.463,13.32,0.033,174.8
2020-07-29T03:19:03,42.805,6.029,0.006,-0.031,-0.016,105.0,105.0,102.0,13.4,1505.3,326.9,-0.7,1.8,2470.462,13.32,0.031,169.0
2020-07-29T03:22:03,42.805,6.029,0.009,-0.039,-0.004,105.0,105.0,101.0,13.3,1505.3,325.1,-0.7,1.8,2470.43,13.32,0.04,167.0
2020-07-29T03:25:03,42.805,6.029,0.018,-0.041,-0.008,105.0,104.0,102.0,13.4,1505.3,324.7,-0.7,1.8,2470.4,13.32,0.044,156.3
2020-07-29T03:28:03,42.805,6.029,0.009,-0.054,-0.027,105.0,106.0,102.0,13.3,1505.3,326.2,-0.7,1.8,2470.445,13.32,0.054,170.5
2020-07-29T03:31:03,42.805,6.029,-0.001,-0.067,-0.029,105.0,105.0,102.0,13.4,1505.3,326.1,-0.7,1.8,2470.457,13.32,0.067,180.9
2020-07-29T03:34:03,42.805,6.029,-0.017,-0.047,-0.016,105.0,106.0,102.0,13.4,1505.3,327.1,-0.7,1.9,2470.463,13.32,0.049,199.9
2020-07-29T03:37:03,42.805,6.029,-0.002,-0.059,-0.029,107.0,104.0,102.0,13.4,1505.3,327.9,-0.7,1.8,2470.422,13.32,0.059,181.9
2020-07-29T03:40:03,42.805,6.029,0.003,-0.036,-0.007,106.0,105.0,101.0,13.3,1505.3,323.2,-0.7,1.8,2470.422,13.32,0.036,175.2
2020-07-29T03:43:03,42.805,6.029,0.002,-0.046,-0.028,104.0,104.0,103.0,13.3,1505.3,324.8,-0.7,1.8,2470.423,13.32,0.046,177.5
2020-07-29T03:46:03,42.805,6.029,0.002,-0.044,-0.003,105.0,105.0,103.0,13.4,1505.3,323.3,-0.7,1.8,2470.434,13.32,0.044,177.4
2020-07-29T03:49:03,42.805,6.029,-0.009,-0.051,-0.003,105.0,105.0,102.0,13.4,1505.3,326.5,-0.7,1.8,2470.425,13.32,0.051,190.0
2020-07-29T03:52:03,42.805,6.029,0.013,-0.049,-0.028,105.0,105.0,101.0,13.4,1505.3,324.0,-0.7,1.8,2470.422,13.32,0.05,165.1
2020-07-29T03:55:03,42.805,6.029,0.013,-0.054,-0.035,104.0,105.0,102.0,13.4,1505.3,323.5,-0.7,1.8,2470.45,13.32,0.055,166.5
2020-07-29T03:58:03,42.805,6.029,0.015,-0.049,0.0,104.0,105.0,102.0,13.4,1505.3,324.0,-0.7,1.8,2470.406,13.32,0.051,163.0
2020-07-29T04:04:03,42.805,6.029,0.017,-0.044,0.002,105.0,105.0,102.0,13.4,1505.2,326.4,-0.8,1.8,2470.454,13.3,0.047,158.9
2020-07-29T04:07:03,42.805,6.029,0.001,-0.029,-0.028,104.0,105.0,102.0,13.3,1505.3,328.1,-0.8,1.8,2470.452,13.31,0.029,178.0
2020-07-29T04:10:03,42.805,6.029,-0.002,-0.038,-0.012,105.0,106.0,101.0,13.4,1505.3,323.4,-0.7,1.8,2470.443,13.31,0.038,183.0
2020-07-29T04:13:03,42.805,6.029,0.009,-0.052,-0.017,105.0,105.0,102.0,13.4,1505.3,324.0,-0.7,1.8,2470.409,13.32,0.052,170.2
2020-07-29T04:16:03,42.805,6.029,0.01,-0.046,-0.03,103.0,106.0,102.0,13.4,1505.3,326.1,-0.7,1.8,2470.407,13.32,0.047,167.7
2020-07-29T04:19:03,42.805,6.029,0.003,-0.039,-0.032,106.0,106.0,103.0,13.4,1505.3,325.9,-0.7,1.8,2470.437,13.32,0.039,175.6
2020-07-29T04:22:03,42.805,6.029,0.0,-0.037,0.015,105.0,105.0,104.0,13.4,1505.3,328.3,-0.7,1.8,2470.385,13.32,0.037,180.0
2020-07-29T04:25:03,42.805,6.029,0.021,-0.064,-0.059,105.0,104.0,100.0,13.4,1505.3,323.9,-0.7,1.8,2470.411,13.32,0.067,161.8
2020-07-29T04:28:03,42.805,6.029,0.007,-0.058,0.009,105.0,104.0,101.0,13.4,1505.3,326.1,-0.7,1.8,2470.374,13.32,0.058,173.1
2020-07-29T04:31:03,42.805,6.029,0.003,-0.054,-0.04,104.0,104.0,102.0,13.4,1505.3,324.5,-0.7,1.8,2470.391,13.32,0.054,176.8
2020-07-29T04:34:03,42.805,6.029,-0.015,-0.051,-0.03,104.0,105.0,102.0,13.4,1505.3,328.6,-0.7,1.8,2470.403,13.32,0.053,196.4
2020-07-29T04:37:03,42.805,6.029,0.003,-0.046,-0.032,104.0,104.0,103.0,13.4,1505.3,327.9,-0.7,1.8,2470.403,13.32,0.046,176.3
2020-07-29T04:40:03,42.805,6.029,-0.003,-0.058,-0.029,104.0,105.0,101.0,13.3,1505.3,327.2,-0.7,1.8,2470.4,13.32,0.058,183.0
2020-07-29T04:43:03,42.805,6.029,0.007,-0.046,-0.011,104.0,106.0,103.0,13.4,1505.3,325.4,-0.7,1.8,2470.391,13.32,0.046,171.3
2020-07-29T04:46:03,42.805,6.029,0.014,-0.019,-0.006,105.0,105.0,102.0,13.3,1505.3,324.6,-0.7,1.8,2470.396,13.32,0.023,143.6
2020-07-29T04:49:03,42.805,6.029,0.022,-0.056,-0.016,105.0,107.0,103.0,13.4,1505.3,323.7,-0.7,1.9,2470.408,13.32,0.06,158.6
2020-07-29T04:52:03,42.805,6.029,0.013,-0.045,0.002,104.0,104.0,102.0,13.3,1505.3,325.7,-0.7,1.8,2470.41,13.32,0.046,163.9
2020-07-29T04:55:03,42.805,6.029,0.012,-0.054,0.005,104.0,105.0,103.0,13.4,1505.3,327.9,-0.7,1.8,2470.363,13.32,0.055,167.5
2020-07-29T04:58:03,42.805,6.029,-0.005,-0.04,-0.021,106.0,104.0,101.0,13.4,1505.3,326.5,-0.7,1.9,2470.372,13.32,0.04,187.1
2020-07-29T05:04:03,42.805,6.029,0.017,-0.063,-0.005,106.0,106.0,102.0,13.4,1505.2,328.0,-0.8,1.8,2470.474,13.3,0.065,164.9
2020-07-29T05:07:03,42.805,6.029,0.011,-0.04,0.001,106.0,105.0,102.0,13.4,1505.3,325.0,-0.7,1.9,2470.389,13.31,0.041,164.6
2020-07-29T05:10:03,42.805,6.029,-0.021,-0.055,-0.036,103.0,105.0,102.0,13.3,1505.3,323.5,-0.7,1.8,2470.433,13.31,0.058,200.9
2020-07-29T05:13:03,42.805,6.029,-0.008,-0.038,-0.032,105.0,105.0,101.0,13.3,1505.3,328.0,-0.7,1.8,2470.411,13.32,0.038,191.9
2020-07-29T05:16:03,42.805,6.029,0.008,-0.062,-0.001,104.0,105.0,102.0,13.4,1505.3,324.8,-0.7,1.9,2470.409,13.32,0.062,172.7
2020-07-29T05:19:03,42.805,6.029,0.009,-0.052,-0.008,105.0,106.0,102.0,13.4,1505.3,325.2,-0.7,1.8,2470.395,13.32,0.052,170.2
2020-07-29T05:22:03,42.805,6.029,0.005,-0.057,0.002,105.0,106.0,103.0,13.4,1505.3,323.7,-0.7,1.8,2470.435,13.32,0.057,175.0
2020-07-29T05:25:03,42.805,6.029,0.0,-0.051,-0.002,106.0,105.0,102.0,13.4,1505.3,325.6,-0.7,1.8,2470.386,13.32,0.051,180.0
2020-07-29T05:28:03,42.805,6.029,-0.007,-0.022,-0.021,105.0,106.0,102.0,13.3,1505.3,323.1,-0.7,1.8,2470.379,13.32,0.023,197.6
2020-07-29T05:31:03,42.805,6.029,0.007,-0.032,0.0,104.0,105.0,101.0,13.4,1505.3,324.7,-0.7,1.8,2470.417,13.32,0.032,167.7
2020-07-29T05:34:03,42.805,6.029,0.002,-0.025,0.005,105.0,105.0,102.0,13.4,1505.3,323.3,-0.7,1.8,2470.374,13.32,0.025,175.4
2020-07-29T05:37:03,42.805,6.029,0.0,-0.043,0.005,105.0,104.0,102.0,13.3,1505.3,325.9,-0.7,1.8,2470.342,13.32,0.043,180.0
2020-07-29T05:40:03,42.805,6.029,0.0,-0.03,-0.011,106.0,104.0,103.0,13.4,1505.3,327.6,-0.7,1.8,2470.41,13.32,0.03,180.0
2020-07-29T05:43:03,42.805,6.029,0.014,-0.015,0.011,105.0,105.0,101.0,13.3,1505.3,323.4,-0.7,1.8,2470.393,13.32,0.02,137.0
2020-07-29T05:46:03,42.805,6.029,0.026,-0.042,-0.008,105.0,105.0,102.0,13.3,1505.3,326.1,-0.7,1.8,2470.385,13.32,0.049,148.2
2020-07-29T05:49:03,42.805,6.029,0.012,-0.048,-0.002,105.0,105.0,102.0,13.4,1505.3,328.2,-0.7,1.8,2470.375,13.32,0.049,166.0
2020-07-29T05:52:03,42.805,6.029,0.003,-0.049,-0.044,105.0,104.0,100.0,13.4,1505.3,323.3,-0.7,1.8,2470.383,13.32,0.049,176.5
2020-07-29T05:55:03,42.805,6.029,0.024,-0.044,-0.007,105.0,105.0,101.0,13.4,1505.3,325.0,-0.7,1.8,2470.432,13.32,0.05,151.4
2020-07-29T05:58:03,42.805,6.029,0.001,-0.055,-0.038,105.0,107.0,102.0,13.3,1505.3,325.7,-0.7,1.8,2470.36,13.32,0.055,179.0
2020-07-29T06:04:03,42.805,6.029,0.036,-0.043,-0.021,105.0,105.0,102.0,13.3,1505.2,325.6,-0.7,1.8,2470.411,13.3,0.056,140.1
2020-07-29T06:07:03,42.805,6.029,0.023,-0.047,-0.036,105.0,106.0,102.0,13.4,1505.3,325.9,-0.7,1.8,2470.417,13.31,0.052,153.9
2020-07-29T06:10:03,42.805,6.029,-0.004,-0.044,-0.019,105.0,106.0,102.0,13.4,1505.3,324.7,-0.7,1.8,2470.407,13.31,0.044,185.2
2020-07-29T06:13:03,42.805,6.029,0.011,-0.047,-0.038,105.0,105.0,100.0,13.4,1505.3,324.7,-0.7,1.8,2470.404,13.32,0.048,166.8
2020-07-29T06:16:03,42.805,6.029,0.027,-0.045,-0.019,104.0,105.0,101.0,13.4,1505.3,324.8,-0.7,1.8,2470.423,13.32,0.052,149.0
2020-07-29T06:19:03,42.805,6.029,0.004,-0.045,-0.02,104.0,106.0,102.0,13.4,1505.3,325.7,-0.7,1.8,2470.368,13.32,0.045,174.9
2020-07-29T06:22:03,42.805,6.029,0.032,-0.053,-0.015,105.0,105.0,100.0,13.3,1505.3,324.8,-0.7,1.8,2470.367,13.32,0.061,148.9
2020-07-29T06:25:02,42.805,6.029,0.011,-0.051,-0.025,105.0,106.0,102.0,13.4,1505.3,327.3,-0.7,1.8,2470.413,13.32,0.052,167.8
2020-07-29T06:28:03,42.805,6.029,0.014,-0.04,-0.008,106.0,105.0,102.0,13.4,1505.3,323.8,-0.7,1.8,2470.395,13.32,0.042,160.7
2020-07-29T06:31:03,42.805,6.029,0.003,-0.069,-0.012,104.0,105.0,102.0,13.4,1505.3,326.5,-0.7,1.8,2470.361,13.32,0.069,177.5
2020-07-29T06:34:03,42.805,6.029,0.007,-0.065,-0.002,105.0,104.0,101.0,13.4,1505.3,322.7,-0.7,1.8,2470.299,13.32,0.065,173.9
2020-07-29T06:37:02,42.805,6.029,0.031,-0.041,-0.023,105.0,104.0,102.0,13.3,1505.3,324.9,-0.7,1.9,2470.331,13.32,0.051,142.9
2020-07-29T06:40:03,42.805,6.029,0.037,-0.046,-0.013,105.0,104.0,103.0,13.4,1505.3,327.2,-0.7,1.8,2470.302,13.32,0.059,141.2
2020-07-29T06:43:03,42.805,6.029,0.001,-0.047,-0.026,104.0,105.0,102.0,13.3,1505.3,324.0,-0.7,1.8,2470.394,13.32,0.047,178.8
2020-07-29T06:46:03,42.805,6.029,0.014,-0.052,-0.015,105.0,105.0,102.0,13.4,1505.3,324.2,-0.7,1.8,2470.351,13.32,0.053,164.9
2020-07-29T06:49:03,42.805,6.029,0.008,-0.014,-0.03,105.0,105.0,101.0,13.4,1505.3,326.5,-0.7,1.8,2470.361,13.32,0.016,150.3
2020-07-29T06:52:03,42.805,6.029,0.016,-0.045,0.019,106.0,104.0,101.0,13.3,1505.3,327.0,-0.7,1.8,2470.395,13.32,0.047,160.4
2020-07-29T06:55:03,42.805,6.029,0.003,-0.026,-0.001,105.0,104.0,102.0,13.4,1505.3,325.5,-0.7,1.9,2470.336,13.32,0.026,173.4
2020-07-29T06:58:03,42.805,6.029,0.018,-0.044,-0.02,104.0,104.0,101.0,13.4,1505.3,326.5,-0.7,1.8,2470.317,13.32,0.047,157.8
2020-07-29T07:04:03,42.805,6.029,0.0,-0.043,-0.037,105.0,105.0,102.0,13.4,1505.2,324.4,-0.7,1.8,2470.375,13.3,0.043,180.0
2020-07-29T07:07:03,42.805,6.029,-0.004,-0.04,-0.008,105.0,105.0,101.0,13.3,1505.3,327.0,-0.7,1.8,2470.338,13.31,0.04,185.7
2020-07-29T07:10:03,42.805,6.029,0.02,-0.049,-0.042,104.0,106.0,101.0,13.4,1505.3,325.5,-0.7,1.8,2470.36,13.31,0.052,157.8
2020-07-29T07:13:03,42.805,6.029,0.002,-0.02,0.02,105.0,106.0,101.0,13.3,1505.3,326.3,-0.7,1.9,2470.343,13.32,0.02,174.3
2020-07-29T07:16:03,42.805,6.029,0.005,-0.046,0.001,106.0,104.0,102.0,13.4,1505.3,323.3,-0.7,1.9,2470.33,13.32,0.046,173.8
2020-07-29T07:19:03,42.805,6.029,0.013,-0.05,-0.001,106.0,105.0,102.0,13.4,1505.3,327.8,-0.7,1.8,2470.324,13.32,0.051,165.4
2020-07-29T07:22:03,42.805,6.029,0.015,-0.06,0.006,104.0,105.0,103.0,13.4,1505.3,325.3,-0.7,1.9,2470.387,13.32,0.061,166.0
2020-07-29T07:25:03,42.805,6.029,-0.019,-0.035,-0.003,106.0,106.0,101.0,13.3,1505.3,327.4,-0.7,1.8,2470.344,13.32,0.039,208.5
2020-07-29T07:28:03,42.805,6.029,0.015,-0.058,-0.019,105.0,105.0,101.0,13.3,1505.3,324.8,-0.7,1.8,2470.305,13.32,0.059,165.5
2020-07-29T07:31:02,42.805,6.029,0.014,-0.037,-0.034,104.0,105.0,102.0,13.3,1505.3,324.4,-0.7,1.8,2470.32,13.32,0.039,159.3
2020-07-29T07:34:03,42.805,6.029,0.005,-0.058,-0.037,105.0,105.0,102.0,13.4,1505.3,326.1,-0.7,1.8,2470.33,13.32,0.058,175.1
2020-07-29T07:37:03,42.805,6.029,0.015,-0.043,-0.015,105.0,104.0,102.0,13.4,1505.3,325.3,-0.7,1.8,2470.34,13.32,0.045,160.8
2020-07-29T07:40:03,42.805,6.029,0.022,-0.052,0.0,104.0,105.0,102.0,13.3,1505.3,324.1,-0.7,1.8,2470.338,13.32,0.056,157.1
2020-07-29T07:43:03,42.805,6.029,0.03,-0.05,-0.011,106.0,104.0,101.0,13.4,1505.3,327.8,-0.7,1.9,2470.292,13.32,0.058,149.0
2020-07-29T07:46:03,42.805,6.029,0.014,-0.049,-0.006,105.0,106.0,101.0,13.4,1505.3,328.1,-0.7,1.8,2470.339,13.32,0.05,164.1
2020-07-29T07:49:03,42.805,6.029,0.02,-0.071,-0.015,105.0,104.0,101.0,13.4,1505.3,328.4,-0.7,1.9,2470.338,13.32,0.073,164.3
2020-07-29T07:52:03,42.805,6.029,0.014,-0.023,-0.008,104.0,104.0,103.0,13.4,1505.3,328.1,-0.7,1.8,2470.26,13.32,0.026,148.7
2020-07-29T07:55:03,42.805,6.029,0.018,-0.025,-0.001,105.0,105.0,102.0,13.4,1505.3,324.9,-0.7,1.8,2470.317,13.32,0.03,144.2
2020-07-29T07:58:03,42.805,6.029,0.019,-0.031,0.042,105.0,105.0,102.0,13.4,1505.3,326.1,-0.7,1.8,2470.319,13.32,0.036,148.5
2020-07-29T08:04:03,42.805,6.029,-0.002,-0.044,-0.01,105.0,103.0,102.0,13.4,1505.2,324.7,-0.7,1.8,2470.37,13.3,0.044,182.6
2020-07-29T08:07:03,42.805,6.029,-0.011,-0.042,-0.023,105.0,104.0,101.0,13.4,1505.3,326.8,-0.7,1.9,2470.299,13.31,0.043,194.7
2020-07-29T08:10:03,42.805,6.029,-0.002,-0.048,-0.013,104.0,105.0,102.0,13.4,1505.3,327.9,-0.7,1.8,2470.33,13.31,0.048,182.4
2020-07-29T08:13:03,42.805,6.029,0.011,-0.035,-0.027,105.0,104.0,101.0,13.3,1505.3,325.7,-0.8,1.8,2470.344,13.32,0.036,162.6
2020-07-29T08:19:03,42.805,6.029,0.03,-0.033,-0.012,105.0,105.0,100.0,13.4,1505.2,325.4,-0.8,1.8,2470.344,13.3,0.044,137.7
2020-07-29T08:22:03,42.805,6.029,0.027,-0.049,-0.009,105.0,104.0,102.0,13.4,1505.3,326.3,-0.7,1.8,2470.337,13.31,0.055,151.1
2020-07-29T08:25:03,42.805,6.029,0.008,-0.042,-0.016,105.0,106.0,102.0,13.4,1505.3,327.7,-0.7,1.9,2470.392,13.31,0.042,169.2
2020-07-29T08:28:03,42.805,6.029,0.022,-0.035,-0.022,104.0,105.0,102.0,13.4,1505.3,323.5,-0.7,1.9,2470.321,13.32,0.041,147.8
2020-07-29T08:31:03,42.805,6.029,0.032,-0.055,0.014,105.0,105.0,102.0,13.4,1505.3,324.4,-0.7,1.9,2470.323,13.32,0.063,149.8
2020-07-29T08:34:03,42.805,6.029,-0.001,-0.067,-0.044,105.0,104.0,101.0,13.4,1505.3,326.9,-0.7,1.9,2470.324,13.32,0.067,180.9
2020-07-29T08:37:03,42.805,6.029,0.01,-0.045,-0.033,104.0,104.0,102.0,13.4,1505.3,323.8,-0.7,1.8,2470.334,13.32,0.046,167.5
2020-07-29T08:40:03,42.805,6.029,0.007,-0.06,-0.047,105.0,104.0,102.0,13.4,1505.3,325.2,-0.7,1.8,2470.307,13.32,0.06,173.3
2020-07-29T08:43:03,42.805,6.029,0.013,-0.051,-0.053,103.0,105.0,101.0,13.4,1505.3,324.7,-0.7,1.8,2470.321,13.32,0.052,165.7
2020-07-29T08:46:03,42.805,6.029,0.02,-0.046,-0.001,104.0,105.0,102.0,13.4,1505.3,324.2,-0.7,1.8,2470.305,13.32,0.05,156.5
2020-07-29T08:49:03,42.805,6.029,0.016,-0.041,0.024,104.0,104.0,101.0,13.4,1505.3,325.4,-0.7,1.8,2470.284,13.32,0.044,158.7
2020-07-29T08:52:03,42.805,6.029,0.008,-0.058,-0.047,105.0,104.0,102.0,13.4,1505.3,325.9,-0.7,1.8,2470.322,13.32,0.058,172.2
2020-07-29T08:55:03,42.805,6.029,0.023,-0.063,-0.014,104.0,103.0,102.0,13.4,1505.3,324.5,-0.7,1.8,2470.302,13.32,0.067,159.9
2020-07-29T08:58:03,42.805,6.029,0.003,-0.064,-0.003,104.0,103.0,102.0,13.3,1505.3,324.7,-0.7,1.8,2470.263,13.32,0.064,177.3
2020-07-29T09:04:03,42.805,6.029,0.023,-0.042,-0.018,105.0,104.0,102.0,13.3,1505.2,325.0,-0.8,1.8,2470.298,13.3,0.047,151.3
2020-07-29T09:07:03,42.805,6.029,0.014,-0.033,-0.02,104.0,103.0,102.0,13.4,1505.3,325.1,-0.7,1.8,2470.316,13.31,0.035,157.0
2020-07-29T09:10:03,42.805,6.029,0.003,-0.035,-0.005,105.0,104.0,101.0,13.4,1505.3,328.4,-0.7,1.8,2470.3,13.31,0.035,175.1
2020-07-29T09:13:03,42.805,6.029,0.015,-0.041,-0.01,103.0,105.0,102.0,13.4,1505.3,324.0,-0.7,1.8,2470.318,13.32,0.043,159.9
2020-07-29T09:16:03,42.805,6.029,-0.001,-0.058,-0.012,105.0,103.0,101.0,13.4,1505.3,327.3,-0.7,1.8,2470.323,13.32,0.058,181.0
2020-07-29T09:19:03,42.805,6.029,0.006,-0.041,-0.012,105.0,103.0,101.0,13.3,1505.3,326.2,-0.7,1.8,2470.334,13.32,0.041,171.7
2020-07-29T09:22:03,42.805,6.029,0.033,-0.038,-0.013,104.0,104.0,102.0,13.4,1505.3,324.5,-0.7,1.8,2470.349,13.32,0.05,139.0
2020-07-29T09:25:03,42.805,6.029,0.034,-0.045,-0.013,104.0,104.0,102.0,13.4,1505.3,326.2,-0.7,1.9,2470.303,13.32,0.056,142.9
2020-07-29T09:28:03,42.805,6.029,0.029,-0.048,-0.012,103.0,105.0,101.0,13.4,1505.3,326.3,-0.7,1.8,2470.298,13.32,0.056,148.9
2020-07-29T09:31:03,42.805,6.029,0.008,-0.056,0.003,104.0,104.0,101.0,13.3,1505.3,326.9,-0.7,1.8,2470.29,13.32,0.056,171.9
2020-07-29T09:34:03,42.805,6.029,0.0,-0.048,-0.015,104.0,104.0,101.0,13.4,1505.3,327.3,-0.7,1.9,2470.293,13.32,0.048,180.0
2020-07-29T09:37:03,42.805,6.029,0.002,-0.048,-0.012,103.0,105.0,103.0,13.4,1505.3,323.2,-0.7,1.9,2470.306,13.32,0.048,177.6
2020-07-29T09:40:03,42.805,6.029,0.014,-0.028,-0.004,103.0,104.0,102.0,13.3,1505.3,326.5,-0.7,1.8,2470.282,13.32,0.031,153.4
2020-07-29T09:43:03,42.805,6.029,0.027,-0.054,-0.016,104.0,104.0,101.0,13.4,1505.3,326.6,-0.7,1.9,2470.285,13.32,0.06,153.4
2020-07-29T09:46:03,42.805,6.029,0.043,-0.058,0.008,104.0,105.0,100.0,13.4,1505.3,324.3,-0.7,1.9,2470.31,13.32,0.072,143.4
2020-07-29T09:49:03,42.805,6.029,0.039,-0.059,-0.006,103.0,103.0,101.0,13.4,1505.3,324.1,-0.7,1.8,2470.331,13.32,0.07,146.5
2020-07-29T09:52:02,42.805,6.029,0.024,-0.06,-0.006,103.0,103.0,101.0,13.4,1505.3,324.6,-0.7,1.8,2470.321,13.32,0.064,158.2
2020-07-29T09:55:03,42.805,6.029,0.004,-0.052,-0.036,104.0,104.0,101.0,13.4,1505.3,326.8,-0.7,1.8,2470.347,13.32,0.052,175.6
2020-07-29T09:58:03,42.805,6.029,0.027,-0.029,0.005,104.0,106.0,101.0,13.4,1505.3,325.7,-0.8,1.8,2470.292,13.32,0.039,137.0